Temperature
20 19 19 19 18 18 18 18 18 18 18 19 19 19 19 19 18 18 19 19 19 19 19 20 20 19 19 19 18 18 18 18 18 18 18 18 17 17 17 17 17 17 16
19 19 19 19 18 18 18 18 18 18 18 18 18 18 18 18 18 18 19 19 19 19 19 19 19 19 19 19 19 18 18 18 18 18 18 18 17 17 17 17 17 17 16
19 20 19 19 19 19 18 18 18 18 18 18 18 18 18 18 19 19 19 19 19 19 19 19 19 19 19 19 19 18 18 18 18 18 18 18 18 18 17 17 17 17 17
19 19 19 19 19 18 18 18 18 18 18 18 18 18 18 19 18 19 19 19 19 19 19 19 19 19 19 19 19 18 18 18 18 18 18 18 18 17 17 17 17 17 17
19 19 19 18 18 18 18 18 18 18 18 18 18 18 18 18 19 18 19 19 19 19 19 19 19 19 19 19 18 18 18 18 18 18 18 18 18 17 17 17 17 17 17
19 19 19 18 18 18 18 18 18 18 18 18 18 18 18 18 18 18 19 19 18 19 19 19 18 18 19 19 18 18 18 18 18 18 18 18 17 18 17 17 16 17 17
18 18 18 18 18 18 18 18 18 18 18 18 18 18 18 18 18 18 18 18 18 18 19 18 18 18 18 18 18 18 18 18 18 18 18 18 18 17 18 17 17 17 17
18 18 18 18 17 17 17 17 17 18 18 18 17 17 17 18 18 19 18 18 18 18 18 18 18 18 18 18 18 18 18 18 18 18 18 18 18 18 18 18 17 17 17
18 17 17 17 17 17 17 17 17 17 17 17 17 16 16 16 18 18 18 18 17 18 18 18 18 18 18 18 17 18 18 18 18 17 18 17 17 17 18 18 17 17 17
17 17 17 16 16 16 16 17 17 16 16 16 16 15 15 16 16 16 17 17 17 17 17 17 17 17 17 17 17 17 17 17 17 17 17 17 17 17 17 17 17 17 17
17 17 16 16 16 16 16 16 16 16 16 15 15 15 15 15 15 15 15 16 16 17 16 16 17 17 17 16 16 16 16 17 17 17 17 17 17 17 17 16 17 17 17
16 16 16 16 15 16 16 16 16 15 15 15 15 15 15 15 15 15 14 14 15 16 16 16 16 16 16 16 16 16 16 16 16 16 16 16 16 16 16 16 16 17 16
15 14 15 15 15 15 15 15 15 15 14 14 14 15 14 14 15 15 15 14 15 15 15 16 16 15 16 16 16 15 16 16 16 16 16 16 16 16 16 16 16 16 16
13 13 13 14 15 15 14 15 15 14 14 14 14 14 14 14 14 15 15 15 14 14 15 15 15 15 15 15 15 15 15 15 15 16 16 16 16 15 16 16 16 16 16
13 13 13 13 14 14 14 14 14 13 13 14 14 14 13 14 15 14 14 14 14 14 14 14 14 14 15 14 15 15 15 15 15 15 15 15 15 15 15 15 15 15 15
13 13 12 13 13 14 14 13 13 13 13 13 14 14 13 14 14 13 14 14 14 14 14 14 14 14 14 14 14 14 14 14 15 15 15 15 15 15 14 14 14 14 14
12 12 12 12 13 13 13 13 13 13 13 13 13 13 13 13 13 13 13 13 13 14 14 13 13 13 14 14 13 13 13 13 14 14 15 15 15 14 14 14 14 14 14
12 12 12 12 12 12 13 13 13 12 13 12 13 13 13 13 13 13 13 13 13 13 13 13 13 13 14 13 13 13 13 13 13 14 15 14 14 14 13 13 13 13 14
12 12 11 12 12 11 12 12 12 12 12 13 13 13 13 13 13 13 13 13 13 13 13 13 13 13 13 13 13 13 13 13 13 12 12 13 13 13 12 12 13 13 13
12 12 12 12 12 11 11 11 12 12 12 12 12 13 13 13 13 13 13 13 13 13 13 13 13 13 13 12 13 13 13 13 12 12 12 12 12 12 12 12 12 12 12
12 11 12 12 11 11 10 11 11 11 12 13 13 13 12 12 12 12 12 12 13 13 13 13 13 12 12 12 12 12 12 12 12 12 12 12 12 12 12 12 12 12 12
11 11 12 12 11 11 11 11 11 12 12 13 12 12 12 12 12 11 12 12 12 12 12 13 12 12 11 11 11 11 11 11 11 11 12 12 12 12 11 11 11 11 11
11 11 11 12 11 12 11 12 12 12 12 12 12 12 12 12 12 11 11 11 11 11 12 12 12 11 11 11 11 11 11 10 10 11 11 11 12 11 11 11 11 11 11
11 11 12 12 12 12 12 12 12 12 12 11 11 11 12 12 11 11 11 11 11 11 11 11 11 11 11 10 10 11 11 10 10 10 10 10 11 11 10 10 10 10 10
11 11 12 12 12 12 12 12 12 12 11 11 11 11 12 12 11 11 11 11 11 11 11 11 11 11 10 10 10 10 11 11 10 10 10 10 10 11 10 10 10 10 10
11 12 12 11 12 12 12 12 11 11 11 11 11 11 11 11 11 11 11 11 11 10 10 11 11 10 10 10 10 10 10 10 9 9 9 10 10 10 10 9 9 9 9
Wind_Speed
8 6 6 8 9 10 9 7 7 7 8 10 12 12 11 10 10 13 14 18 21 21 20 22 24 25 25 25 25 25 24 23 22 22 23 23 23 23 24 25 24 23 23
8 9 9 7 8 10 10 7 7 8 10 9 10 9 10 9 11 13 14 16 19 22 23 25 26 25 25 25 25 25 24 23 23 23 24 23 23 24 24 25 25 24 23
13 9 9 9 8 10 8 6 5 5 6 6 6 7 6 6 9 12 13 14 15 20 25 26 27 27 26 25 24 25 24 24 23 24 25 24 24 24 25 25 25 24 23
15 8 9 7 6 6 5 6 5 4 5 5 5 6 6 6 10 10 11 13 12 14 19 24 25 25 27 27 26 26 25 25 24 23 24 24 24 24 25 26 24 23 23
11 7 8 7 6 5 6 5 5 4 4 5 5 6 6 6 9 9 10 11 11 13 13 17 24 25 26 28 26 25 25 24 26 25 25 25 25 24 24 25 23 23 23
10 6 7 7 6 6 7 5 6 6 5 5 4 6 7 8 9 10 11 9 8 12 13 14 14 15 23 26 26 25 25 24 25 25 25 26 26 24 23 23 22 23 23
8 7 7 7 8 10 11 9 6 6 6 4 2 5 7 10 13 13 11 10 11 10 11 12 11 9 11 18 19 21 23 24 23 22 23 24 25 24 23 21 23 24 24
8 7 8 8 8 7 8 9 6 4 4 6 5 2 4 5 8 11 12 11 9 9 10 8 7 6 6 6 8 13 17 21 22 23 22 23 25 25 24 24 25 26 26
8 9 9 9 10 9 10 10 9 10 8 6 9 6 5 5 3 3 4 4 5 6 8 6 6 5 5 6 7 9 13 17 20 23 24 21 23 25 24 24 26 25 25
10 10 10 11 11 9 9 10 10 9 9 8 7 9 7 4 3 4 4 4 6 4 4 4 4 3 3 0 0 4 10 12 12 15 18 20 21 22 21 22 25 24 25
11 11 10 10 11 10 10 9 9 10 10 10 8 5 5 5 5 4 5 5 4 3 2 5 2 1 1 4 2 1 3 7 9 12 15 17 18 20 22 26 27 27 25
12 13 10 9 10 9 9 9 9 10 10 10 8 7 5 5 5 5 4 4 2 3 3 2 2 2 3 2 0 1 2 3 4 6 12 12 10 15 19 19 22 25 26
13 13 10 8 8 9 8 8 7 7 7 8 9 6 6 6 5 5 4 3 1 2 4 5 4 4 4 3 2 1 1 5 5 5 7 8 7 7 7 7 8 11 17
12 12 10 8 6 6 6 7 7 7 7 9 9 7 6 7 5 5 4 3 2 1 1 3 4 4 3 3 2 2 4 5 6 5 5 5 6 5 4 4 5 6 7
9 8 7 6 4 4 6 6 7 8 8 8 7 7 6 5 4 4 3 3 4 2 1 2 2 4 3 3 2 0 1 3 6 7 6 5 6 6 5 5 6 7 9
10 9 9 7 3 1 3 5 5 5 5 5 4 6 4 1 3 5 4 3 4 3 1 0 1 2 4 3 5 5 5 8 11 11 10 9 7 6 6 7 8 10 12
8 8 9 8 5 4 3 1 2 3 3 3 4 2 6 8 5 3 4 5 3 3 2 1 3 5 6 5 4 5 7 6 9 14 15 10 5 5 6 9 12 14 14
8 7 8 10 9 7 5 3 4 4 3 3 3 5 8 8 7 5 6 5 3 2 3 4 5 6 6 4 3 4 3 5 6 13 16 12 6 4 6 9 12 15 15
7 7 7 8 10 10 9 7 7 4 2 3 5 7 7 9 8 7 7 6 4 5 6 7 4 2 2 2 3 2 3 2 3 9 13 13 10 9 8 9 12 13 13
5 6 7 6 8 7 7 5 6 5 3 4 6 8 10 9 8 8 7 6 7 8 7 7 4 2 2 2 2 2 2 3 3 4 6 8 8 7 7 8 10 11 12
3 4 4 5 5 3 1 3 5 5 7 9 10 11 10 11 11 8 8 6 8 7 6 5 3 3 3 4 3 3 3 3 2 3 4 4 4 4 4 6 8 12 16
2 3 3 3 3 1 5 5 4 6 9 11 10 9 9 10 9 11 14 13 11 8 4 3 2 3 3 3 3 3 3 2 2 4 3 4 3 3 4 5 8 11 16
5 7 7 4 2 2 2 10 11 7 8 9 8 9 9 8 10 11 13 13 12 9 5 3 2 3 1 3 4 4 3 0 1 3 2 4 3 4 4 6 9 11 13
6 6 5 6 4 6 11 14 13 9 9 8 8 7 8 7 9 10 9 10 9 8 6 3 2 2 2 1 1 2 1 2 3 3 2 3 4 4 4 4 8 10 12
6 6 6 6 6 5 10 13 12 8 8 7 6 7 9 9 11 13 11 10 10 9 9 13 13 9 9 8 5 5 5 4 2 3 2 2 4 4 4 4 6 13 14
7 8 7 7 7 5 7 13 11 7 7 6 6 6 9 11 12 13 10 9 9 6 7 9 10 10 9 8 8 5 2 3 1 3 4 3 4 4 4 4 5 7 10
Wind_Direction
224 219 219 214 211 211 215 215 225 234 239 238 234 239 249 248 233 237 240 243 241 229 219 216 211 216 218 219 219 220 223 224 223 222 224 224 225 224 223 226 223 216 213
231 229 226 216 212 211 215 217 218 227 232 232 229 228 238 239 239 243 246 247 238 230 226 223 220 219 221 220 220 220 221 222 222 222 226 226 225 225 224 225 225 222 218
231 230 226 225 219 212 209 212 226 223 233 229 227 230 236 239 249 244 240 245 244 237 233 228 223 223 223 224 222 220 220 221 223 223 227 228 225 223 223 222 221 220 219
231 232 230 229 235 219 196 202 206 218 228 227 231 238 248 253 257 249 245 247 243 244 242 234 229 226 226 228 227 226 222 221 223 223 224 227 225 223 224 222 220 219 217
249 241 239 232 230 229 220 211 205 202 221 230 240 256 254 253 255 249 248 250 249 243 239 239 235 229 228 233 232 230 229 223 226 223 223 224 224 222 223 224 220 217 217
263 247 241 226 216 231 234 216 210 202 208 212 225 254 257 257 259 253 250 253 259 253 242 243 243 235 233 232 234 231 234 230 228 229 226 223 223 220 219 223 221 220 218
269 254 252 235 219 224 232 221 209 207 212 181 207 266 257 245 248 254 256 255 254 252 242 236 232 229 237 242 239 235 234 232 228 229 229 223 221 220 216 215 219 220 218
274 250 247 246 233 226 229 221 205 195 213 177 183 228 290 279 246 245 247 249 258 256 240 230 209 204 205 220 221 224 232 230 226 227 228 223 219 217 213 209 213 217 217
273 267 249 240 238 225 228 224 207 213 231 208 194 197 219 238 278 270 256 262 287 262 238 224 196 178 207 218 229 231 241 240 231 230 230 224 224 220 214 209 214 217 219
285 277 267 252 240 225 224 225 211 218 223 231 212 216 225 213 209 284 299 305 321 331 331 287 217 189 210 154 321 249 247 251 248 241 229 223 225 226 218 215 221 219 218
288 276 263 261 246 228 224 220 216 214 213 220 216 203 215 212 204 210 266 289 309 312 283 254 302 309 160 157 146 282 258 254 254 252 244 230 230 237 230 227 228 226 222
299 287 270 260 246 223 212 219 215 212 215 215 208 196 183 182 184 187 227 262 301 320 290 333 352 15 62 91 111 290 276 304 319 279 260 255 258 260 251 241 242 234 232
300 287 276 268 250 228 208 201 197 203 213 216 212 202 202 208 172 162 187 215 135 354 334 1 8 32 38 15 325 307 357 355 349 336 306 298 303 289 282 286 272 250 244
303 291 279 274 257 237 210 194 210 213 218 226 221 208 202 215 182 158 172 171 113 59 342 11 9 32 13 360 347 49 10 350 342 330 310 315 324 324 340 340 330 309 287
328 330 317 301 285 240 217 205 221 223 216 219 213 196 188 199 175 142 159 151 116 101 36 43 19 358 6 10 40 107 265 329 346 323 300 294 305 316 321 310 303 290 279
338 349 343 337 331 285 204 212 223 217 198 193 189 180 166 128 99 131 147 128 116 137 135 237 21 353 357 350 7 15 24 40 18 354 312 293 289 297 304 312 309 302 288
336 355 4 347 343 335 291 192 175 107 117 88 57 108 122 110 109 137 109 116 132 128 126 40 30 19 26 358 357 24 52 35 12 6 354 326 320 327 330 327 318 306 290
337 358 13 16 11 23 26 56 75 95 120 144 145 115 112 111 107 99 92 98 107 119 124 101 52 30 23 349 354 36 46 36 17 12 18 33 45 35 5 342 328 315 300
331 355 13 18 29 28 30 31 75 80 113 138 118 109 105 101 94 88 83 88 95 92 100 101 82 23 11 346 359 9 51 23 10 20 31 43 54 48 28 8 356 345 326
319 6 18 27 49 32 20 45 90 121 142 103 87 80 72 75 85 88 84 74 85 88 89 94 90 34 12 346 18 7 358 6 0 4 20 23 29 24 11 358 348 342 332
325 38 61 80 67 59 261 182 181 160 110 82 66 61 61 67 74 79 84 79 84 88 86 83 73 39 12 4 357 341 349 329 321 356 351 343 351 346 342 342 342 339 336
210 172 182 128 111 158 271 219 155 104 91 84 78 66 55 57 73 79 78 71 71 82 83 81 76 55 11 340 332 334 351 10 346 340 337 312 325 317 304 311 328 339 341
178 190 188 176 181 305 119 109 101 96 96 90 83 76 68 55 69 75 69 62 56 59 68 124 108 68 19 332 331 355 14 357 250 297 316 304 313 297 284 297 312 323 337
174 168 173 176 128 36 78 90 91 89 87 85 91 99 95 75 78 85 72 55 39 31 20 27 77 138 159 287 260 243 267 289 269 302 18 307 311 302 299 299 316 316 324
166 173 175 170 114 66 88 95 95 92 92 90 91 88 88 81 80 82 78 65 47 25 24 47 57 70 78 59 38 41 18 33 351 302 338 351 318 307 302 305 328 342 338
170 171 168 174 151 131 109 113 115 119 109 92 71 64 79 86 81 81 83 77 66 11 17 37 33 32 36 39 42 56 70 93 34 338 331 358 328 334 322 315 333 340 341
Height
1534 1534 1534 1534 1534 1534 1535 1535 1536 1536 1536 1536 1536 1536 1537 1537 1536 1535 1534 1534 1534 1533 1533 1533 1532 1533 1533 1534 1535 1536 1537 1538 1539 1540 1541 1543 1545 1546 1548 1549 1548 1549 1550
1531 1531 1530 1529 1529 1529 1530 1530 1531 1532 1532 1532 1532 1532 1532 1532 1532 1532 1530 1530 1530 1529 1528 1528 1528 1528 1529 1529 1530 1531 1532 1533 1534 1535 1536 1538 1539 1540 1542 1543 1544 1545 1546
1526 1525 1525 1524 1524 1524 1524 1525 1525 1526 1526 1527 1526 1526 1526 1526 1526 1526 1526 1526 1526 1525 1524 1523 1523 1523 1524 1524 1524 1525 1526 1527 1529 1529 1531 1532 1533 1534 1535 1536 1538 1540 1542
1521 1520 1521 1520 1521 1520 1519 1520 1519 1519 1520 1520 1521 1521 1521 1521 1520 1520 1520 1520 1519 1519 1518 1517 1517 1517 1517 1517 1518 1519 1520 1521 1522 1523 1524 1526 1527 1528 1530 1531 1532 1535 1537
1516 1514 1513 1514 1515 1515 1514 1514 1514 1513 1513 1514 1515 1515 1515 1515 1515 1514 1512 1512 1512 1511 1511 1511 1510 1509 1509 1510 1511 1512 1514 1515 1516 1516 1517 1519 1520 1522 1525 1527 1528 1529 1532
1511 1509 1508 1508 1510 1510 1508 1508 1507 1506 1507 1507 1508 1507 1507 1507 1507 1507 1505 1503 1503 1504 1504 1504 1504 1503 1503 1504 1504 1506 1507 1508 1510 1511 1511 1513 1514 1516 1518 1521 1524 1526 1527
1505 1504 1502 1502 1502 1501 1500 1502 1501 1500 1500 1501 1502 1500 1499 1499 1498 1498 1498 1496 1493 1494 1496 1497 1497 1496 1496 1497 1498 1499 1499 1500 1502 1503 1505 1507 1508 1510 1512 1515 1519 1521 1522
1497 1496 1495 1494 1494 1492 1492 1492 1492 1492 1492 1494 1496 1496 1493 1492 1489 1490 1489 1487 1484 1484 1486 1488 1489 1490 1491 1491 1492 1493 1493 1494 1495 1496 1498 1500 1502 1504 1506 1508 1512 1515 1518
1490 1488 1486 1485 1484 1484 1483 1484 1484 1483 1484 1484 1487 1489 1488 1484 1484 1484 1484 1481 1479 1478 1478 1480 1483 1484 1486 1486 1485 1486 1487 1487 1487 1489 1491 1494 1496 1498 1499 1501 1504 1507 1510
1483 1480 1478 1476 1475 1475 1475 1475 1475 1475 1475 1475 1476 1477 1479 1481 1482 1481 1480 1479 1476 1475 1475 1479 1478 1478 1480 1480 1479 1479 1480 1480 1480 1482 1484 1486 1489 1492 1492 1494 1497 1500 1502
1474 1471 1469 1468 1467 1466 1467 1468 1468 1468 1467 1468 1468 1470 1473 1475 1475 1476 1473 1473 1473 1472 1471 1474 1474 1474 1474 1474 1475 1475 1474 1475 1475 1476 1478 1480 1481 1484 1486 1488 1490 1493 1494
1463 1459 1459 1459 1459 1459 1459 1460 1461 1461 1461 1461 1462 1464 1467 1469 1469 1470 1469 1468 1467 1469 1471 1471 1470 1472 1471 1472 1473 1473 1472 1472 1471 1471 1473 1474 1475 1476 1478 1482 1484 1486 1488
1455 1449 1448 1451 1452 1452 1453 1454 1454 1454 1455 1456 1457 1458 1460 1463 1464 1465 1465 1465 1464 1465 1470 1469 1469 1470 1470 1471 1471 1471 1470 1469 1468 1467 1467 1469 1470 1472 1474 1476 1478 1479 1480
1452 1446 1444 1446 1447 1447 1447 1448 1449 1448 1449 1450 1451 1452 1454 1457 1459 1459 1461 1463 1461 1465 1468 1467 1468 1469 1470 1470 1469 1468 1467 1467 1466 1464 1464 1465 1466 1468 1470 1471 1472 1473 1474
1451 1448 1445 1444 1444 1444 1444 1444 1442 1442 1443 1445 1446 1447 1449 1453 1455 1458 1460 1460 1460 1464 1466 1467 1468 1469 1469 1469 1468 1467 1466 1465 1464 1463 1463 1462 1463 1463 1465 1467 1467 1467 1468
1451 1448 1445 1444 1443 1442 1441 1440 1440 1441 1442 1443 1444 1446 1448 1451 1454 1458 1458 1458 1460 1463 1465 1466 1467 1469 1469 1469 1467 1466 1464 1461 1460 1460 1460 1459 1460 1460 1461 1462 1462 1462 1462
1452 1450 1447 1444 1443 1442 1440 1439 1438 1439 1440 1441 1442 1446 1448 1450 1453 1456 1456 1459 1461 1463 1464 1466 1468 1468 1468 1468 1467 1466 1463 1461 1459 1457 1456 1456 1457 1458 1458 1459 1459 1458 1458
1453 1450 1448 1446 1444 1442 1441 1439 1437 1440 1443 1445 1446 1448 1451 1451 1453 1455 1457 1459 1461 1463 1465 1465 1467 1468 1468 1469 1468 1466 1465 1462 1458 1455 1453 1453 1454 1455 1456 1456 1456 1455 1454
1454 1452 1450 1448 1446 1444 1443 1441 1440 1443 1446 1448 1449 1450 1451 1453 1454 1455 1457 1459 1461 1463 1465 1466 1468 1470 1470 1469 1468 1467 1466 1463 1460 1456 1453 1452 1452 1452 1453 1454 1454 1452 1450
1455 1452 1451 1449 1447 1446 1446 1445 1445 1447 1449 1450 1452 1452 1453 1454 1455 1456 1458 1460 1461 1464 1467 1468 1470 1471 1471 1469 1468 1467 1465 1463 1461 1458 1455 1454 1453 1452 1453 1453 1451 1449 1446
1455 1454 1452 1451 1450 1448 1450 1451 1450 1451 1452 1452 1453 1453 1454 1456 1458 1460 1460 1462 1464 1467 1468 1468 1470 1470 1469 1468 1467 1466 1465 1464 1462 1460 1458 1456 1455 1454 1452 1450 1447 1445 1441
1455 1455 1454 1454 1453 1453 1455 1457 1458 1456 1455 1455 1456 1457 1458 1459 1462 1462 1462 1463 1465 1467 1468 1468 1468 1469 1469 1469 1468 1468 1467 1465 1463 1461 1460 1458 1456 1454 1452 1449 1444 1440 1436
1454 1454 1456 1456 1456 1457 1459 1460 1461 1460 1460 1460 1460 1461 1462 1463 1463 1464 1465 1466 1467 1469 1470 1469 1469 1469 1470 1469 1470 1469 1466 1466 1464 1462 1462 1460 1457 1454 1450 1446 1442 1438 1433
1453 1454 1456 1457 1458 1459 1461 1462 1463 1463 1462 1463 1464 1465 1465 1464 1464 1466 1467 1467 1468 1469 1469 1469 1469 1468 1469 1470 1470 1470 1468 1466 1466 1464 1461 1460 1457 1453 1450 1447 1443 1438 1432
1451 1453 1455 1457 1458 1459 1461 1463 1464 1464 1465 1465 1464 1465 1465 1465 1465 1465 1466 1467 1468 1468 1468 1468 1469 1469 1470 1471 1470 1468 1466 1465 1464 1463 1461 1458 1455 1452 1450 1448 1445 1438 1431
1449 1452 1453 1456 1459 1459 1461 1462 1464 1465 1466 1466 1466 1467 1467 1466 1465 1466 1467 1468 1468 1469 1470 1471 1470 1470 1470 1471 1470 1468 1465 1464 1463 1462 1460 1458 1457 1454 1450 1449 1445 1439 1434